#timestamp,LO_Frequency,Hit,StdDev 
1581282015.2,286047000.7,N
1581282035.1,286047002.1,N
1581282036.0,286047002.1,N
1581282055.8,286047002.1,N
1581282075.7,286047002.1,N
1581282095.5,286047001.4,N
1581282115.3,286047001.4,N
1581282135.2,286047000.1,N
1581282155.0,286047001.7,N
1581282155.9,286047001.7,N
1581282175.7,286047004.0,N
1581282195.6,286047003.1,N
1581282215.4,286047003.2,N
1581282235.3,286047002.7,N
1581282255.1,286047000.6,N
1581282256.0,286047000.6,N
1581282275.8,286047000.9,N
1581282295.7,286047002.6,N
1581282315.5,286047000.2,N
1581282335.4,286046998.3,N
1581282355.2,286047000.7,N
1581282375.0,286047001.0,N
1581282375.9,286047001.0,N
1581282395.8,286047000.9,N
1581282415.6,286046998.3,N
1581282435.5,286047001.1,N
1581282455.3,286047002.3,N
1581282475.1,286047000.2,N
1581282495.9,286047001.0,N
1581282515.7,286047002.6,N
1581282535.5,286047002.1,N
1581282555.4,286047004.3,Y
1581282575.2,286047002.7,P
1581282595.1,286047000.1,N
1581282596.0,286047000.1,N
1581282615.8,286047000.3,N
1581282635.6,286047002.5,N
1581282655.5,286047001.3,N
1581282675.3,286047000.5,N
1581282695.2,286047002.8,N
1581282715.9,286047000.3,N
1581282735.7,286047000.6,N
1581282755.6,286047002.5,N
1581282775.4,286046998.2,N
1581282795.2,286046996.7,N
1581282815.1,286046997.4,N
1581282816.0,286046997.4,N
1581282835.8,286046999.3,N
1581282855.7,286046998.9,N
1581282875.5,286046998.4,N
1581282895.3,286046998.4,N
1581282915.2,286047000.4,N
1581282935.0,286047000.2,N
1581282935.9,286047000.2,N
1581282955.8,286046999.1,N
1581282975.6,286046999.0,N
1581282995.4,286046998.1,N
1581283015.3,286047000.5,N
1581283035.1,286046999.4,N
1581283055.8,286046998.9,N
1581283075.7,286047001.0,N
1581283095.5,286047000.6,N
1581283115.4,286046997.0,N
1581283165.2,286046996.6,E
1581283175.1,286046998.3,N
1581283195.9,286047001.3,P
1581283215.7,286047002.1,N
1581283235.6,286047003.6,N
1581283255.4,286047003.0,N
1581283275.2,286047003.0,N
1581283295.1,286047005.9,Y
1581283296.0,286047005.9,P
1581283315.8,286047002.2,N
1581283335.7,286046999.8,N
1581283355.5,286047004.0,N
1581283375.3,286047001.7,N
1581283395.2,286047002.9,N
1581283415.9,286047004.1,N
1581283435.7,286047005.9,Y
1581283455.6,286046998.6,P
1581283475.4,286047001.0,N
1581283495.3,286047001.1,N
1581283515.1,286046999.1,N
1581283516.0,286046999.1,N
1581283535.8,286047000.0,N
1581283555.7,286047001.4,N
1581283605.5,286047004.0,E
1581283615.5,286046999.7,N
1581283635.3,286046996.7,P
1581283655.1,286046997.5,N
1581283675.9,286046997.7,N
1581283695.7,286046997.2,N
1581283715.5,286046995.7,Y
1581283735.4,286046996.8,P
1581283755.2,286046997.6,P
1581283775.1,286046997.9,P
1581283776.0,286046997.9,Y
1581283825.8,286046996.8,E
1581283835.8,286046998.5,N
1581283855.6,286047001.1,P
1581283875.4,286046998.6,N
1581283895.3,286047000.9,N
1581283915.1,286046998.5,N
1581283935.8,286047001.1,N
1581283955.7,286046999.1,N
1581283975.5,286046997.8,N
1581283995.4,286046995.1,Y
1581284015.2,286046997.7,P
1581284035.0,286046999.4,N
1581284035.9,286046999.4,N
1581284055.8,286046996.8,Y
1581284075.6,286046999.3,P
1581284095.5,286046998.9,P
1581284115.3,286046998.9,P
1581284135.1,286046999.4,Y
1581284155.9,286046998.5,P
1581284175.7,286046998.3,P
1581284195.5,286046999.0,P
1581284215.4,286046996.8,Y
1581284235.2,286046998.7,P
1581284255.1,286047000.3,P
1581284256.0,286047000.3,N
1581284275.8,286046998.6,N
1581284295.6,286047000.3,N
1581284315.5,286047001.9,N
1581284335.3,286047002.5,N
1581284355.2,286047002.5,N
1581284375.9,286047002.7,N
1581284395.7,286047002.3,N
1581284415.6,286047002.6,N
1581284435.4,286047002.4,N
1581284455.3,286047002.3,N
1581284475.1,286047000.5,N
1581284476.0,286047000.5,N
1581284495.8,286046998.4,N
1581284515.7,286046999.1,N
1581284535.5,286046997.0,N
1581284555.4,286046998.4,N
1581284575.2,286046999.5,N
1581284595.0,286046996.9,N
1581284595.9,286046996.9,N
1581284615.8,286046995.5,N
1581284635.6,286046997.9,N
1581284655.5,286046997.8,N
1581284675.3,286046997.7,N
1581284695.1,286046997.7,N
1581284715.9,286046994.9,N
1581284735.7,286046995.0,N
1581284755.5,286046996.0,N
1581284775.4,286046996.3,N
1581284795.2,286046993.8,N
1581284815.1,286046994.0,N
1581284816.0,286046994.0,N
1581284835.8,286046992.5,N
1581284855.7,286046991.0,N
1581284875.5,286046991.0,N
1581284895.3,286046993.1,N
1581284915.2,286046992.5,N
1581284935.0,286046990.4,N
1581284935.9,286046990.4,N
1581284955.7,286046990.3,N
1581284975.6,286046993.1,N
1581284995.4,286046991.6,N
1581285015.3,286046990.7,Y
1581285035.1,286046996.1,P
1581285055.8,286046997.6,P
1581285075.7,286046995.0,P
1581285095.5,286046997.9,N
1581285115.4,286046996.0,Y
1581285135.2,286046999.3,P
1581285155.0,286046998.5,N
1581285155.9,286046998.5,N
1581285175.8,286047001.1,N
1581285195.6,286047000.5,N
1581285215.5,286046998.2,N
1581285235.3,286046999.2,N
1581285255.1,286046999.3,N
1581285275.9,286046999.3,N
1581285295.7,286046998.3,N
1581285315.5,286046998.1,N
1581285335.4,286046998.2,N
1581285355.2,286047001.1,N
1581285375.1,286047000.4,N
1581285376.0,286047000.4,N
1581285395.8,286047002.8,N
1581285415.7,286047002.1,N
1581285435.5,286047002.0,N
1581285455.3,286047001.6,N
1581285475.2,286047002.3,N
1581285495.9,286047001.6,N
1581285515.7,286046999.8,N
1581285535.6,286047001.9,N
1581285555.4,286047002.5,N
1581285575.3,286047002.4,N
1581285595.1,286046999.8,N
1581285596.0,286046999.8,N
